George, South Africa

3:39 PM SAST on September 20, 2017 (GMT +0200)
George

Weather History for FAGG - February, 2013

Change the Weather History Date:

Monday, February 18, 2013

  Actual Average Record
Temperature  
Mean Temperature 71 °F -  
Max Temperature 79 °F 73 °F 95 °F (2000)
Min Temperature 63 °F 58 °F 53 °F (2002)
Cooling Degree Days 6    
Growing Degree Days 21 (Base 50)    
Moisture  
Dew Point 65 °F    
Average Humidity 82    
Maximum Humidity 100    
Minimum Humidity 60    
Precipitation  
Precipitation 0.00 in - - ()
Sea Level Pressure  
Sea Level Pressure 29.68 in    
Wind  
Wind Speed 7 mph ()    
Max Wind Speed 12 mph    
Max Gust Speed -    
Visibility 4.8 miles    
Events Fog    
Averages and records for this station are not official NWS values.
T = Trace of Precipitation, MM = Missing Value Source: Averaged Metar Reports

Daily Weather History Graph

Daily Weather History Graph

Search for Another Location

Airport or City:

Trip Planner

Search our weather history database for the weather conditions in past years. The results will help you decide how hot, cold, wet, or windy it might be!

Date:

Astronomy

Feb. 18, 2013 Rise Set
Actual Time 6:08 AM SAST 7:19 PM SAST
Civil Twilight 5:42 AM SAST 7:45 PM SAST
Nautical Twilight 5:11 AM SAST 8:16 PM SAST
Astronomical Twilight 4:39 AM SAST 8:48 PM SAST
Moon 1:54 PM SAST (2/18) No Moon Set
Length of Visible Light 14h 03m
Length of Day
13h 11m
First Quarter, 55% of the Moon is Illuminated
Feb 18
First Quarter
Feb 25
Full
Mar 4
Last Quarter
Mar 11
New
Mar 19
First Quarter

Hourly Weather History & Observations

Time (SAST) Temp. Dew Point Humidity Pressure Visibility Wind Dir Wind Speed Gust Speed Precip Events Conditions
12:00 AM 68.0 °F 66.2 °F 94% 29.71 in 3.1 mi West 8.1 mph - N/A   Mostly Cloudy
1:00 AM 68.0 °F 64.4 °F 88% 29.71 in 5.6 mi WNW 10.4 mph - N/A   Mostly Cloudy
2:00 AM 67 °F 65 °F 91% 29.70 in 4 mi West 9.2 mph - -  
2:00 AM 68.0 °F 64.4 °F 88% 29.71 in 5.0 mi West 8.1 mph - N/A   Overcast
3:00 AM 66.2 °F 64.4 °F 94% 29.68 in 3.7 mi West 9.2 mph - N/A   Overcast
5:00 AM 65 °F 63 °F 92% 29.68 in 0 mi WNW 5.8 mph - - Fog Heavy Fog
5:00 AM 64.4 °F 64.4 °F 100% 29.68 in 0.3 mi WNW 5.8 mph - N/A Fog Fog
6:00 AM 64.4 °F 62.6 °F 94% 29.68 in 0.3 mi WNW 9.2 mph - N/A Fog Fog
7:00 AM 64.4 °F 62.6 °F 94% 29.68 in 0.3 mi West 8.1 mph - N/A Fog Fog
8:00 AM 65 °F 63 °F 92% 29.68 in 0 mi West 6.9 mph - - Fog Heavy Fog
8:00 AM 64.4 °F 62.6 °F 94% 29.68 in 0.3 mi West 5.8 mph - N/A Fog Fog
9:00 AM 66.2 °F 64.4 °F 94% 29.68 in 6.2 mi West 3.5 mph - N/A   Mostly Cloudy
10:00 AM 75.2 °F 64.4 °F 69% 29.68 in - Variable 3.5 mph - N/A   Clear
11:00 AM 77.0 °F 66.2 °F 69% 29.68 in - SSW 5.8 mph - N/A   Clear
12:00 PM 78.8 °F 66.2 °F 65% 29.65 in - South 8.1 mph - N/A   Clear
1:00 PM 78.8 °F 68.0 °F 69% 29.65 in 6.2 mi South 9.2 mph - N/A   Partly Cloudy
2:00 PM 78 °F 67 °F 60% 29.65 in 12 mi SSW 8.1 mph - -   Scattered Clouds
2:00 PM 78.8 °F 68.0 °F 69% 29.62 in 6.2 mi SSW 8.1 mph - N/A   Partly Cloudy
3:00 PM 77.0 °F 66.2 °F 69% 29.62 in 6.2 mi SSW 6.9 mph - N/A   Partly Cloudy
4:00 PM 77.0 °F 66.2 °F 69% 29.62 in 6.2 mi SSW 10.4 mph - N/A   Partly Cloudy
5:00 PM 75.2 °F 66.2 °F 73% 29.65 in 6.2 mi SW 10.4 mph - N/A   Partly Cloudy
6:00 PM 73.4 °F 64.4 °F 73% 29.65 in 6.2 mi SW 11.5 mph - N/A   Partly Cloudy
7:00 PM 69.8 °F 64.4 °F 83% 29.68 in 6.2 mi SW 9.2 mph - N/A   Mostly Cloudy
8:00 PM 70 °F 65 °F 80% 29.73 in 12 mi WSW 8.1 mph - -   Mostly Cloudy
8:00 PM 69.8 °F 64.4 °F 83% 29.71 in 6.2 mi WSW 6.9 mph - N/A   Mostly Cloudy
9:00 PM 69.8 °F 64.4 °F 83% 29.74 in 6.2 mi WSW 6.9 mph - N/A   Mostly Cloudy
10:00 PM 68.0 °F 64.4 °F 88% 29.71 in - Variable 2.3 mph - N/A   Clear
11:00 PM 68.0 °F 64.4 °F 88% 29.71 in 6.2 mi WSW 4.6 mph - N/A   Mostly Cloudy